| time (UTC) | temp F | wind direction | speed MPH | gust MPH | rain 1hr in | rain 24hr in | rain mn in | humidity % | barometer mb |
| 20260906165041 | 91 | 319 | 4.0 | 5.0 | 0.00 | 0.00 | 0.00 | 80 | 1015.5 |
| 20260906164540 | 92 | 326 | 3.0 | 7.0 | 0.00 | 0.00 | 0.00 | 80 | 1015.5 |
| 20260906164037 | 93 | 74 | 0.0 | 1.0 | 0.00 | 0.00 | 0.00 | 81 | 1015.3 |
| 20260906163532 | 92 | 230 | 3.0 | 3.0 | 0.00 | 0.00 | 0.00 | 81 | 1015.5 |
| 20260906163027 | 92 | 180 | 2.0 | 4.0 | 0.00 | 0.00 | 0.00 | 82 | 1015.6 |
| 20260906162524 | 91 | 177 | 3.0 | 4.0 | 0.00 | 0.00 | 0.00 | 84 | 1015.9 |
| 20260906162019 | 90 | 205 | 3.0 | 3.0 | 0.00 | 0.00 | 0.00 | 85 | 1015.8 |
| 20260906161514 | 91 | 277 | 3.0 | 4.0 | 0.00 | 0.00 | 0.00 | 82 | 1015.6 |
| 20260906161013 | 92 | 340 | 0.0 | 3.0 | 0.00 | 0.00 | 0.00 | 85 | 1015.7 |
| 20260906160507 | 91 | 209 | 2.0 | 4.0 | 0.00 | 0.00 | 0.00 | 84 | 1015.9 |
| 20260906160005 | 90 | 270 | 3.0 | 4.0 | 0.00 | 0.00 | 0.00 | 85 | 1015.8 |
| 20260906155503 | 91 | 278 | 5.0 | 7.0 | 0.00 | 0.00 | 0.00 | 86 | 1015.7 |
| 20260906154959 | 90 | 176 | 2.0 | 3.0 | 0.00 | 0.00 | 0.00 | 85 | 1015.9 |
| 20260906154455 | 90 | 198 | 0.0 | 4.0 | 0.00 | 0.00 | 0.00 | 87 | 1016.0 |
| 20260906153953 | 90 | 174 | 1.0 | 2.0 | 0.00 | 0.00 | 0.00 | 89 | 1016.2 |
| 20260906153452 | 89 | 188 | 1.0 | 3.0 | 0.00 | 0.00 | 0.00 | 89 | 1016.0 |
| 20260906152947 | 88 | 12 | 4.0 | 5.0 | 0.00 | 0.00 | 0.00 | 91 | 1016.0 |
| 20260906152447 | 88 | 348 | 2.0 | 3.0 | 0.00 | 0.00 | 0.00 | 90 | 1016.0 |
| 20260906151947 | 87 | 275 | 2.0 | 5.0 | 0.00 | 0.00 | 0.00 | 92 | 1016.1 |
| 20260906151442 | 88 | 335 | 4.0 | 4.0 | 0.00 | 0.00 | 0.00 | 91 | 1016.2 |
| 20260906150938 | 88 | 345 | 0.0 | 4.0 | 0.00 | 0.00 | 0.00 | 91 | 1015.8 |
| 20260906150433 | 88 | 225 | 2.0 | 6.0 | 0.00 | 0.00 | 0.00 | 90 | 1015.8 |
| 20260906145932 | 87 | 243 | 2.0 | 4.0 | 0.00 | 0.00 | 0.00 | 92 | 1015.8 |
| 20260906145432 | 87 | 345 | 2.0 | 6.0 | 0.00 | 0.00 | 0.00 | 92 | 1016.2 |
| 20260906144926 | 88 | 263 | 1.0 | 5.0 | 0.00 | 0.00 | 0.00 | 92 | 1016.1 |
| 20260906144421 | 87 | 145 | 0.0 | 3.0 | 0.00 | 0.00 | 0.00 | 94 | 1015.9 |
| 20260906143916 | 86 | 22 | 0.0 | 4.0 | 0.00 | 0.00 | 0.00 | 96 | 1015.9 |
| 20260906143412 | 87 | 264 | 0.0 | 3.0 | 0.00 | 0.00 | 0.00 | 94 | 1016.0 |
| 20260906142908 | 86 | 251 | 5.0 | 5.0 | 0.00 | 0.00 | 0.00 | 95 | 1016.0 |
| 20260906142408 | 85 | 16 | 2.0 | 3.0 | 0.00 | 0.00 | 0.00 | 97 | 1015.9 |
| 20260906141902 | 86 | 15 | 2.0 | 3.0 | 0.00 | 0.00 | 0.00 | 96 | 1016.1 |
| 20260906141402 | 85 | 218 | 2.0 | 3.0 | 0.00 | 0.00 | 0.00 | 97 | 1015.9 |
| 20260906140856 | 85 | 243 | 3.0 | 6.0 | 0.00 | 0.00 | 0.00 | 97 | 1015.9 |
| 20260906140351 | 84 | 279 | 2.0 | 3.0 | 0.00 | 0.00 | 0.00 | 99 | 1015.9 |
| 20260906135849 | 83 | 323 | 2.0 | 4.0 | 0.00 | 0.00 | 0.00 | 99 | 1016.0 |
| 20260906135343 | 83 | 339 | 2.0 | 3.0 | 0.00 | 0.00 | 0.00 | 99 | 1016.0 |
| 20260906134838 | 82 | 270 | 3.0 | 3.0 | 0.00 | 0.00 | 0.00 | 99 | 1016.0 |
| 20260906134333 | 81 | 276 | 2.0 | 4.0 | 0.00 | 0.00 | 0.00 | 99 | 1015.9 |
| 20260906133829 | 81 | 309 | 3.0 | 5.0 | 0.00 | 0.00 | 0.00 | 99 | 1016.0 |
| 20260906133324 | 80 | 278 | 2.0 | 5.0 | 0.00 | 0.00 | 0.00 | 99 | 1016.0 |
| 20260906132820 | 80 | 270 | 1.0 | 5.0 | 0.00 | 0.00 | 0.00 | 99 | 1016.0 |
| 20260906132315 | 80 | 294 | 1.0 | 2.0 | 0.00 | 0.00 | 0.00 | 99 | 1016.1 |
| 20260906131810 | 79 | 254 | 4.0 | 6.0 | 0.00 | 0.00 | 0.00 | 99 | 1016.2 |
| 20260906131305 | 79 | 300 | 0.0 | 4.0 | 0.00 | 0.00 | 0.00 | 99 | 1016.0 |
| 20260906130801 | 79 | 240 | 0.0 | 2.0 | 0.00 | 0.00 | 0.00 | 99 | 1015.9 |
| 20260906130256 | 78 | 243 | 0.0 | 4.0 | 0.00 | 0.00 | 0.00 | 99 | 1016.1 |
| 20260906125754 | 78 | 340 | 0.0 | 2.0 | 0.00 | 0.00 | 0.00 | 99 | 1016.2 |
| 20260906125252 | 78 | 325 | 0.0 | 0.0 | 0.00 | 0.00 | 0.00 | 99 | 1016.0 |
| 20260906124747 | 77 | 194 | 0.0 | 0.0 | 0.00 | 0.00 | 0.00 | 99 | 1015.9 |
| 20260906124243 | 76 | 246 | 0.0 | 2.0 | 0.00 | 0.00 | 0.00 | 99 | 1015.7 |
| 20260906123741 | 76 | 185 | 0.0 | 2.0 | 0.00 | 0.00 | 0.00 | 99 | 1015.7 |
| 20260906123237 | 76 | 209 | 0.0 | 1.0 | 0.00 | 0.00 | 0.00 | 99 | 1015.6 |
| 20260906122731 | 76 | 286 | 0.0 | 1.0 | 0.00 | 0.00 | 0.00 | 99 | 1015.5 |
| 20260906122226 | 76 | 237 | 0.0 | 2.0 | 0.00 | 0.00 | 0.00 | 99 | 1015.7 |
| 20260906121723 | 76 | 246 | 0.0 | 2.0 | 0.00 | 0.00 | 0.00 | 99 | 1015.7 |
| 20260906121219 | 76 | 254 | 0.0 | 1.0 | 0.00 | 0.00 | 0.00 | 99 | 1015.6 |
| 20260906120714 | 76 | 15 | 0.0 | 0.0 | 0.00 | 0.00 | 0.00 | 99 | 1015.7 |
| 20260906120211 | 75 | 15 | 0.0 | 0.0 | 0.00 | 0.00 | 0.00 | 99 | 1015.7 |
| 20260906115707 | 75 | 15 | 0.0 | 0.0 | 0.00 | 0.00 | 0.00 | 99 | 1015.8 |
| 20260906115201 | 75 | 0 | 0.0 | 1.0 | 0.00 | 0.00 | 0.00 | 99 | 1015.7 |
| 20260906114700 | 75 | 180 | 0.0 | 0.0 | 0.00 | 0.00 | 0.00 | 99 | 1015.7 |
| 20260906114155 | 75 | 180 | 0.0 | 0.0 | 0.00 | 0.00 | 0.00 | 99 | 1015.6 |
| 20260906113650 | 75 | 180 | 0.0 | 0.0 | 0.00 | 0.00 | 0.00 | 99 | 1015.7 |
| 20260906113150 | 75 | 180 | 0.0 | 0.0 | 0.00 | 0.00 | 0.00 | 99 | 1015.4 |
| 20260906112649 | 75 | 14 | 0.0 | 1.0 | 0.00 | 0.00 | 0.00 | 99 | 1015.4 |
| 20260906112146 | 75 | 180 | 0.0 | 1.0 | 0.00 | 0.00 | 0.00 | 99 | 1015.2 |
| 20260906111645 | 74 | 180 | 0.0 | 2.0 | 0.00 | 0.00 | 0.00 | 99 | 1015.2 |
| 20260906111140 | 74 | 195 | 0.0 | 1.0 | 0.00 | 0.00 | 0.00 | 99 | 1015.3 |
| 20260906110635 | 74 | 180 | 0.0 | 0.0 | 0.00 | 0.00 | 0.00 | 99 | 1015.2 |
| 20260906110130 | 74 | 180 | 0.0 | 0.0 | 0.00 | 0.00 | 0.00 | 99 | 1015.2 |
| 20260906105624 | 74 | 180 | 0.0 | 0.0 | 0.00 | 0.00 | 0.00 | 99 | 1015.2 |
| 20260906105121 | 74 | 180 | 0.0 | 1.0 | 0.00 | 0.00 | 0.00 | 99 | 1015.1 |
| 20260906104620 | 74 | 212 | 0.0 | 0.0 | 0.00 | 0.00 | 0.00 | 99 | 1015.2 |
| 20260906104114 | 74 | 23 | 0.0 | 0.0 | 0.00 | 0.00 | 0.00 | 99 | 1014.9 |
| 20260906103612 | 74 | 23 | 0.0 | 0.0 | 0.00 | 0.00 | 0.00 | 99 | 1015.0 |
| 20260906103108 | 74 | 23 | 0.0 | 0.0 | 0.00 | 0.00 | 0.00 | 99 | 1014.8 |
| 20260906102607 | 74 | 23 | 0.0 | 0.0 | 0.00 | 0.00 | 0.00 | 99 | 1014.8 |
| 20260906102057 | 74 | 23 | 0.0 | 1.0 | 0.00 | 0.00 | 0.00 | 99 | 1014.7 |
| 20260906101557 | 74 | 18 | 0.0 | 1.0 | 0.00 | 0.00 | 0.00 | 99 | 1014.6 |
| 20260906101051 | 74 | 345 | 0.0 | 0.0 | 0.00 | 0.00 | 0.00 | 99 | 1014.8 |
| 20260906100548 | 74 | 7 | 0.0 | 1.0 | 0.00 | 0.00 | 0.00 | 99 | 1014.8 |
| 20260906100048 | 74 | 18 | 0.0 | 1.0 | 0.00 | 0.00 | 0.00 | 99 | 1014.7 |
| 20260906095547 | 74 | 270 | 0.0 | 0.0 | 0.00 | 0.00 | 0.00 | 99 | 1014.8 |
| 20260906095043 | 74 | 270 | 0.0 | 0.0 | 0.00 | 0.00 | 0.00 | 99 | 1014.7 |
| 20260906094542 | 74 | 270 | 0.0 | 0.0 | 0.00 | 0.00 | 0.00 | 99 | 1014.6 |
| 20260906094038 | 74 | 270 | 0.0 | 0.0 | 0.00 | 0.00 | 0.00 | 99 | 1014.7 |
| 20260906093533 | 74 | 270 | 0.0 | 0.0 | 0.00 | 0.00 | 0.00 | 99 | 1014.5 |
| 20260906093028 | 74 | 270 | 0.0 | 1.0 | 0.00 | 0.00 | 0.00 | 99 | 1014.6 |
| 20260906092523 | 74 | 0 | 0.0 | 0.0 | 0.00 | 0.00 | 0.00 | 99 | 1014.3 |
| 20260906092018 | 74 | 0 | 0.0 | 0.0 | 0.00 | 0.00 | 0.00 | 99 | 1014.5 |
| 20260906091514 | 74 | 185 | 0.0 | 0.0 | 0.00 | 0.00 | 0.00 | 99 | 1014.3 |
| 20260906091011 | 74 | 185 | 0.0 | 0.0 | 0.00 | 0.00 | 0.00 | 99 | 1014.5 |
| 20260906090510 | 74 | 180 | 0.0 | 1.0 | 0.00 | 0.00 | 0.00 | 99 | 1014.5 |
| 20260906090005 | 74 | 188 | 0.0 | 1.0 | 0.00 | 0.00 | 0.00 | 99 | 1014.3 |
| 20260906085504 | 74 | 180 | 0.0 | 0.0 | 0.00 | 0.00 | 0.00 | 99 | 1014.2 |
| 20260906085004 | 74 | 261 | 0.0 | 0.0 | 0.00 | 0.00 | 0.00 | 99 | 1014.4 |
| 20260906084458 | 74 | 249 | 0.0 | 1.0 | 0.00 | 0.00 | 0.00 | 99 | 1014.3 |
| 20260906083957 | 74 | 352 | 0.0 | 0.0 | 0.00 | 0.00 | 0.00 | 99 | 1014.3 |
| 20260906083453 | 74 | 352 | 0.0 | 0.0 | 0.00 | 0.00 | 0.00 | 99 | 1014.3 |
| 20260906082952 | 74 | 352 | 0.0 | 0.0 | 0.00 | 0.00 | 0.00 | 99 | 1014.3 |
| 20260906082448 | 74 | 352 | 0.0 | 0.0 | 0.00 | 0.00 | 0.00 | 99 | 1014.3 |
| 20260906081944 | 74 | 352 | 0.0 | 0.0 | 0.00 | 0.00 | 0.00 | 99 | 1014.3 |
| 20260906081444 | 75 | 352 | 0.0 | 0.0 | 0.00 | 0.00 | 0.00 | 99 | 1014.4 |
| 20260906080940 | 74 | 353 | 0.0 | 1.0 | 0.00 | 0.00 | 0.00 | 99 | 1014.3 |
| 20260906080436 | 74 | 15 | 0.0 | 1.0 | 0.00 | 0.00 | 0.00 | 99 | 1014.1 |
| 20260906075931 | 74 | 0 | 0.0 | 0.0 | 0.00 | 0.00 | 0.00 | 99 | 1014.3 |
| 20260906075426 | 75 | 0 | 0.0 | 1.0 | 0.00 | 0.00 | 0.00 | 99 | 1014.1 |
| 20260906074920 | 75 | 11 | 0.0 | 0.0 | 0.00 | 0.00 | 0.00 | 99 | 1014.0 |
| 20260906074415 | 75 | 11 | 2.0 | 2.0 | 0.00 | 0.00 | 0.00 | 99 | 1014.2 |
| 20260906073914 | 75 | 23 | 0.0 | 1.0 | 0.00 | 0.00 | 0.00 | 99 | 1014.0 |
| 20260906073409 | 75 | 262 | 0.0 | 0.0 | 0.00 | 0.00 | 0.00 | 99 | 1014.3 |
| 20260906072905 | 75 | 262 | 0.0 | 0.0 | 0.00 | 0.00 | 0.00 | 99 | 1014.1 |
| 20260906072400 | 75 | 215 | 0.0 | 0.0 | 0.00 | 0.00 | 0.00 | 99 | 1014.2 |
| 20260906071856 | 75 | 187 | 0.0 | 2.0 | 0.00 | 0.00 | 0.00 | 99 | 1014.2 |
| 20260906071352 | 75 | 15 | 0.0 | 0.0 | 0.00 | 0.00 | 0.00 | 99 | 1014.2 |
| 20260906070847 | 75 | 74 | 0.0 | 1.0 | 0.00 | 0.00 | 0.00 | 99 | 1014.3 |
| 20260906070343 | 75 | 187 | 0.0 | 0.0 | 0.00 | 0.00 | 0.00 | 99 | 1014.3 |
| 20260906065838 | 75 | 187 | 0.0 | 0.0 | 0.00 | 0.00 | 0.00 | 99 | 1014.2 |
| 20260906065333 | 75 | 187 | 0.0 | 0.0 | 0.00 | 0.00 | 0.00 | 99 | 1014.3 |
| 20260906064828 | 75 | 188 | 0.0 | 0.0 | 0.00 | 0.00 | 0.00 | 99 | 1014.3 |
| 20260906064324 | 75 | 180 | 0.0 | 0.0 | 0.00 | 0.00 | 0.00 | 99 | 1014.2 |
| 20260906063819 | 75 | 352 | 0.0 | 0.0 | 0.00 | 0.00 | 0.00 | 99 | 1014.3 |
| 20260906063314 | 75 | 157 | 0.0 | 0.0 | 0.00 | 0.00 | 0.00 | 99 | 1014.3 |
| 20260906062809 | 75 | 162 | 0.0 | 2.0 | 0.00 | 0.00 | 0.00 | 99 | 1014.4 |
| 20260906062308 | 75 | 140 | 2.0 | 2.0 | 0.00 | 0.00 | 0.00 | 99 | 1014.4 |
| 20260906061804 | 75 | 187 | 1.0 | 2.0 | 0.00 | 0.00 | 0.00 | 99 | 1014.4 |
| 20260906061301 | 75 | 90 | 0.0 | 0.0 | 0.00 | 0.00 | 0.00 | 99 | 1014.5 |
| 20260906060755 | 75 | 90 | 0.0 | 0.0 | 0.00 | 0.00 | 0.00 | 99 | 1014.6 |
| 20260906060253 | 75 | 103 | 0.0 | 1.0 | 0.00 | 0.00 | 0.00 | 99 | 1014.5 |
| 20260906055748 | 75 | 99 | 0.0 | 1.0 | 0.00 | 0.00 | 0.00 | 99 | 1014.6 |
| 20260906055243 | 75 | 123 | 0.0 | 2.0 | 0.00 | 0.00 | 0.00 | 99 | 1014.9 |
| 20260906054739 | 76 | 154 | 1.0 | 2.0 | 0.00 | 0.00 | 0.00 | 99 | 1014.8 |
| 20260906054234 | 75 | 140 | 0.0 | 2.0 | 0.00 | 0.00 | 0.00 | 99 | 1015.0 |
| 20260906053730 | 75 | 14 | 0.0 | 1.0 | 0.00 | 0.00 | 0.00 | 99 | 1014.8 |
| 20260906053226 | 75 | 18 | 1.0 | 2.0 | 0.00 | 0.00 | 0.00 | 99 | 1015.0 |
| 20260906052721 | 75 | 157 | 0.0 | 1.0 | 0.00 | 0.00 | 0.00 | 99 | 1014.8 |
| 20260906052217 | 75 | 165 | 0.0 | 1.0 | 0.00 | 0.00 | 0.00 | 99 | 1014.9 |
| 20260906051714 | 75 | 180 | 0.0 | 0.0 | 0.00 | 0.00 | 0.00 | 99 | 1014.9 |
| 20260906051213 | 75 | 180 | 0.0 | 1.0 | 0.00 | 0.00 | 0.00 | 99 | 1014.8 |
| 20260906050709 | 75 | 40 | 0.0 | 0.0 | 0.00 | 0.00 | 0.00 | 99 | 1015.0 |
| 20260906050204 | 75 | 40 | 0.0 | 0.0 | 0.00 | 0.00 | 0.00 | 99 | 1015.0 |
| 20260906045702 | 76 | 52 | 2.0 | 3.0 | 0.00 | 0.01 | 0.01 | 99 | 1014.8 |
| 20260906045157 | 76 | 165 | 0.0 | 1.0 | 0.00 | 0.01 | 0.01 | 99 | 1014.7 |
| 20260906044653 | 76 | 334 | 0.0 | 0.0 | 0.00 | 0.01 | 0.01 | 99 | 1014.9 |
| 20260906044148 | 76 | 279 | 0.0 | 2.0 | 0.00 | 0.01 | 0.01 | 99 | 1015.1 |
| 20260906043644 | 76 | 254 | 0.0 | 2.0 | 0.00 | 0.01 | 0.01 | 99 | 1014.8 |
| 20260906043140 | 76 | 212 | 0.0 | 3.0 | 0.00 | 0.01 | 0.01 | 99 | 1015.1 |
| 20260906042639 | 76 | 189 | 2.0 | 3.0 | 0.00 | 0.01 | 0.01 | 99 | 1015.0 |
| 20260906042133 | 76 | 194 | 3.0 | 3.0 | 0.00 | 0.01 | 0.01 | 99 | 1015.0 |
| 20260906041629 | 76 | 180 | 0.0 | 2.0 | 0.00 | 0.01 | 0.01 | 99 | 1015.2 |
| 20260906041124 | 75 | 225 | 0.0 | 2.0 | 0.00 | 0.01 | 0.01 | 99 | 1015.2 |
| 20260906040620 | 75 | 173 | 0.0 | 1.0 | 0.00 | 0.01 | 0.01 | 99 | 1015.3 |
| 20260906040115 | 75 | 209 | 1.0 | 2.0 | 0.00 | 0.01 | 0.01 | 99 | 1015.5 |
| 20260906035610 | 75 | 187 | 1.0 | 1.0 | 0.00 | 0.01 | 0.01 | 99 | 1015.6 |
| 20260906035106 | 75 | 99 | 0.0 | 0.0 | 0.00 | 0.01 | 0.01 | 99 | 1015.5 |
| 20260906034606 | 75 | 69 | 0.0 | 1.0 | 0.00 | 0.01 | 0.01 | 99 | 1015.5 |
| 20260906034100 | 75 | 180 | 0.0 | 0.0 | 0.00 | 0.01 | 0.01 | 99 | 1015.6 |
| 20260906033556 | 75 | 180 | 0.0 | 0.0 | 0.00 | 0.01 | 0.01 | 99 | 1015.5 |
| 20260906033051 | 75 | 180 | 0.0 | 0.0 | 0.00 | 0.01 | 0.01 | 99 | 1015.7 |
| 20260906032548 | 75 | 180 | 0.0 | 0.0 | 0.00 | 0.01 | 0.01 | 99 | 1015.6 |
| 20260906032042 | 75 | 74 | 1.0 | 2.0 | 0.00 | 0.01 | 0.01 | 99 | 1015.5 |
| 20260906031538 | 76 | 90 | 0.0 | 0.0 | 0.00 | 0.01 | 0.01 | 99 | 1015.5 |
| 20260906031033 | 76 | 90 | 0.0 | 2.0 | 0.00 | 0.01 | 0.01 | 99 | 1015.6 |
| 20260906030532 | 75 | 165 | 0.0 | 1.0 | 0.00 | 0.01 | 0.01 | 99 | 1015.5 |
| 20260906030032 | 76 | 165 | 0.0 | 0.0 | 0.00 | 0.01 | 0.01 | 99 | 1015.7 |
| 20260906025531 | 76 | 180 | 0.0 | 1.0 | 0.00 | 0.01 | 0.01 | 99 | 1015.4 |
| 20260906025025 | 76 | 90 | 0.0 | 0.0 | 0.00 | 0.01 | 0.01 | 99 | 1015.5 |
| 20260906024520 | 76 | 90 | 0.0 | 0.0 | 0.00 | 0.01 | 0.01 | 99 | 1015.5 |
| 20260906024019 | 76 | 166 | 0.0 | 0.0 | 0.00 | 0.01 | 0.01 | 99 | 1015.6 |
| 20260906023516 | 76 | 166 | 0.0 | 1.0 | 0.00 | 0.01 | 0.01 | 99 | 1015.5 |
| 20260906023011 | 76 | 173 | 0.0 | 1.0 | 0.00 | 0.01 | 0.01 | 99 | 1015.4 |
| 20260906022506 | 76 | 106 | 1.0 | 1.0 | 0.00 | 0.01 | 0.01 | 99 | 1015.5 |
| 20260906022001 | 76 | 180 | 0.0 | 1.0 | 0.00 | 0.01 | 0.01 | 99 | 1015.2 |
| 20260906021456 | 76 | 180 | 0.0 | 2.0 | 0.00 | 0.01 | 0.01 | 99 | 1015.2 |
| 20260906020951 | 76 | 157 | 0.0 | 2.0 | 0.00 | 0.01 | 0.01 | 99 | 1015.4 |
| 20260906020444 | 77 | 29 | 0.0 | 1.0 | 0.00 | 0.01 | 0.01 | 99 | 1015.2 |
| 20260906015938 | 77 | 345 | 0.0 | 2.0 | 0.00 | 0.01 | 0.01 | 99 | 1015.2 |
| 20260906015433 | 77 | 127 | 2.0 | 2.0 | 0.00 | 0.01 | 0.01 | 99 | 1014.9 |
| 20260906014933 | 77 | 127 | 2.0 | 2.0 | 0.00 | 0.01 | 0.01 | 99 | 1015.1 |
| 20260906014432 | 77 | 160 | 0.0 | 0.0 | 0.00 | 0.01 | 0.01 | 99 | 1014.9 |
| 20260906013929 | 77 | 160 | 0.0 | 0.0 | 0.00 | 0.01 | 0.01 | 99 | 1014.7 |
| 20260906013424 | 77 | 160 | 0.0 | 1.0 | 0.00 | 0.01 | 0.01 | 99 | 1014.7 |
| 20260906012920 | 77 | 132 | 2.0 | 2.0 | 0.00 | 0.01 | 0.01 | 99 | 1014.6 |
| 20260906012420 | 77 | 90 | 1.0 | 1.0 | 0.00 | 0.01 | 0.01 | 99 | 1014.5 |
| 20260906011919 | 77 | 126 | 0.0 | 0.0 | 0.00 | 0.01 | 0.01 | 99 | 1014.5 |
| 20260906011414 | 78 | 157 | 1.0 | 1.0 | 0.00 | 0.01 | 0.01 | 99 | 1014.4 |
| 20260906010909 | 77 | 180 | 0.0 | 0.0 | 0.00 | 0.01 | 0.01 | 99 | 1014.3 |
| 20260906010405 | 78 | 173 | 0.0 | 0.0 | 0.00 | 0.01 | 0.01 | 99 | 1014.1 |
| 20260906005901 | 78 | 173 | 0.0 | 0.0 | 0.00 | 0.01 | 0.01 | 99 | 1014.2 |
| 20260906005400 | 78 | 20 | 0.0 | 0.0 | 0.00 | 0.01 | 0.01 | 99 | 1014.2 |
| 20260906004859 | 78 | 20 | 0.0 | 1.0 | 0.00 | 0.01 | 0.01 | 99 | 1014.2 |
| 20260906004353 | 79 | 111 | 1.0 | 1.0 | 0.00 | 0.01 | 0.01 | 99 | 1014.0 |
| 20260906003849 | 79 | 180 | 0.0 | 2.0 | 0.00 | 0.01 | 0.01 | 99 | 1014.2 |
| 20260906003344 | 79 | 200 | 1.0 | 2.0 | 0.00 | 0.01 | 0.01 | 99 | 1014.3 |
| 20260906002840 | 79 | 209 | 0.0 | 3.0 | 0.00 | 0.01 | 0.01 | 99 | 1014.0 |
| 20260906002339 | 80 | 209 | 3.0 | 3.0 | 0.00 | 0.01 | 0.01 | 99 | 1014.1 |
| 20260906001835 | 80 | 206 | 1.0 | 3.0 | 0.00 | 0.01 | 0.01 | 99 | 1014.3 |
| 20260906001330 | 80 | 225 | 0.0 | 2.0 | 0.00 | 0.01 | 0.01 | 99 | 1014.1 |
| 20260906000825 | 80 | 216 | 2.0 | 2.0 | 0.00 | 0.01 | 0.01 | 99 | 1014.4 |
| 20260906000320 | 80 | 225 | 2.0 | 4.0 | 0.00 | 0.01 | 0.01 | 99 | 1014.1 |
| 20260905235819 | 81 | 201 | 2.0 | 3.0 | 0.00 | 0.01 | 0.01 | 99 | 1014.3 |
| 20260905235314 | 81 | 214 | 2.0 | 3.0 | 0.00 | 0.01 | 0.01 | 99 | 1014.3 |
| 20260905234810 | 81 | 183 | 3.0 | 3.0 | 0.00 | 0.01 | 0.01 | 99 | 1014.4 |
| 20260905234305 | 82 | 220 | 2.0 | 2.0 | 0.00 | 0.01 | 0.01 | 99 | 1014.3 |
| 20260905233759 | 82 | 240 | 0.0 | 3.0 | 0.00 | 0.01 | 0.01 | 99 | 1014.5 |
| 20260905233254 | 82 | 234 | 0.0 | 1.0 | 0.00 | 0.01 | 0.01 | 99 | 1014.5 |
| 20260905232753 | 82 | 203 | 1.0 | 1.0 | 0.00 | 0.01 | 0.01 | 99 | 1014.4 |
| 20260905232249 | 82 | 234 | 1.0 | 2.0 | 0.00 | 0.01 | 0.01 | 99 | 1014.7 |
| 20260905231745 | 83 | 180 | 0.0 | 1.0 | 0.00 | 0.01 | 0.01 | 99 | 1014.4 |
| 20260905231240 | 83 | 166 | 0.0 | 0.0 | 0.00 | 0.01 | 0.01 | 99 | 1014.7 |
| 20260905230737 | 82 | 166 | 0.0 | 2.0 | 0.00 | 0.01 | 0.01 | 99 | 1014.7 |
| 20260905230234 | 83 | 192 | 1.0 | 2.0 | 0.00 | 0.01 | 0.01 | 99 | 1014.8 |
| 20260905225734 | 83 | 192 | 0.0 | 2.0 | 0.00 | 0.01 | 0.01 | 98 | 1014.8 |
| 20260905225229 | 83 | 195 | 1.0 | 2.0 | 0.02 | 0.01 | 0.01 | 99 | 1014.6 |
| 20260905224728 | 83 | 197 | 0.0 | 2.0 | 0.02 | 0.01 | 0.01 | 99 | 1014.4 |
| 20260905224224 | 83 | 180 | 0.0 | 3.0 | 0.00 | 0.00 | 0.00 | 99 | 1014.6 |
| 20260905223720 | 83 | 187 | 3.0 | 3.0 | 0.00 | 0.00 | 0.00 | 99 | 1014.5 |
| 20260905223217 | 83 | 200 | 3.0 | 4.0 | 0.00 | 0.00 | 0.00 | 99 | 1014.6 |
| 20260905222712 | 83 | 202 | 0.0 | 3.0 | 0.00 | 0.00 | 0.00 | 99 | 1014.4 |
| 20260905222211 | 83 | 233 | 2.0 | 2.0 | 0.00 | 0.00 | 0.00 | 99 | 1014.6 |
| 20260905221707 | 82 | 166 | 0.0 | 1.0 | 0.00 | 0.00 | 0.00 | 99 | 1014.6 |
| 20260905221204 | 82 | 203 | 0.0 | 1.0 | 0.00 | 0.00 | 0.00 | 99 | 1014.5 |
| 20260905220659 | 82 | 81 | 0.0 | 0.0 | 0.00 | 0.00 | 0.00 | 99 | 1014.7 |
| 20260905220155 | 82 | 90 | 0.0 | 2.0 | 0.00 | 0.00 | 0.00 | 99 | 1014.8 |
| 20260905215654 | 82 | 101 | 2.0 | 3.0 | 0.00 | 0.00 | 0.00 | 99 | 1014.7 |
| 20260905215150 | 81 | 127 | 2.0 | 2.0 | 0.00 | 0.00 | 0.00 | 99 | 1014.9 |
| 20260905214646 | 81 | 188 | 0.0 | 1.0 | 0.00 | 0.00 | 0.00 | 99 | 1015.0 |
| 20260905214141 | 81 | 145 | 0.0 | 2.0 | 0.00 | 0.00 | 0.00 | 99 | 1014.9 |
| 20260905213636 | 81 | 115 | 0.0 | 2.0 | 0.00 | 0.00 | 0.00 | 99 | 1014.8 |
| 20260905213131 | 81 | 175 | 2.0 | 2.0 | 0.00 | 0.00 | 0.00 | 99 | 1015.1 |
| 20260905212627 | 81 | 53 | 2.0 | 3.0 | 0.00 | 0.00 | 0.00 | 99 | 1015.2 |
| 20260905212126 | 81 | 90 | 3.0 | 3.0 | 0.00 | 0.00 | 0.00 | 99 | 1015.2 |
| 20260905211621 | 81 | 131 | 2.0 | 3.0 | 0.00 | 0.00 | 0.00 | 99 | 1014.8 |
| 20260905211117 | 81 | 90 | 0.0 | 3.0 | 0.00 | 0.00 | 0.00 | 99 | 1014.6 |
| 20260905210613 | 81 | 36 | 2.0 | 3.0 | 0.00 | 0.00 | 0.00 | 99 | 1014.7 |
| 20260905210108 | 81 | 90 | 0.0 | 4.0 | 0.00 | 0.00 | 0.00 | 99 | 1014.8 |
| 20260905205607 | 80 | 85 | 2.0 | 3.0 | 0.00 | 0.00 | 0.00 | 99 | 1014.9 |
| 20260905205107 | 80 | 120 | 0.0 | 1.0 | 0.00 | 0.00 | 0.00 | 99 | 1014.8 |
| 20260905204606 | 80 | 36 | 3.0 | 6.0 | 0.00 | 0.00 | 0.00 | 99 | 1014.4 |
| 20260905204102 | 80 | 21 | 3.0 | 4.0 | 0.00 | 0.00 | 0.00 | 99 | 1014.5 |
| 20260905203556 | 80 | 17 | 0.0 | 3.0 | 0.00 | 0.00 | 0.00 | 99 | 1015.0 |
| 20260905203051 | 80 | 45 | 2.0 | 6.0 | 0.00 | 0.00 | 0.00 | 99 | 1015.2 |
| 20260905202546 | 79 | 8 | 0.0 | 6.0 | 0.00 | 0.00 | 0.00 | 99 | 1014.9 |
| 20260905202042 | 80 | 343 | 2.0 | 6.0 | 0.00 | 0.00 | 0.00 | 99 | 1015.1 |
| 20260905201538 | 80 | 345 | 2.0 | 3.0 | 0.00 | 0.00 | 0.00 | 99 | 1015.1 |
| 20260905201037 | 78 | 58 | 3.0 | 7.0 | 0.00 | 0.00 | 0.00 | 99 | 1015.4 |
| 20260905200532 | 78 | 41 | 2.0 | 6.0 | 0.00 | 0.00 | 0.00 | 99 | 1015.5 |
| 20260905200032 | 77 | 18 | 4.0 | 7.0 | 0.00 | 0.00 | 0.00 | 99 | 1015.3 |
| 20260905195526 | 77 | 7 | 5.0 | 8.0 | 0.00 | 0.00 | 0.00 | 99 | 1015.4 |
| 20260905195022 | 77 | 359 | 5.0 | 6.0 | 0.00 | 0.00 | 0.00 | 99 | 1015.5 |
| 20260905194521 | 76 | 36 | 5.0 | 10.0 | 0.00 | 0.00 | 0.00 | 99 | 1015.7 |
| 20260905194015 | 77 | 13 | 6.0 | 10.0 | 0.00 | 0.00 | 0.00 | 99 | 1015.9 |
| 20260905193510 | 77 | 49 | 10.0 | 14.0 | 0.02 | 0.00 | 0.00 | 99 | 1016.0 |
| 20260905193006 | 81 | 25 | 9.0 | 16.0 | 0.02 | 0.00 | 0.00 | 99 | 1016.0 |
| 20260905192501 | 88 | 22 | 6.0 | 8.0 | 0.00 | 0.00 | 0.00 | 88 | 1015.7 |
| 20260905191957 | 90 | 344 | 2.0 | 2.0 | 0.00 | 0.00 | 0.00 | 86 | 1015.7 |
| 20260905191455 | 90 | 14 | 2.0 | 3.0 | 0.00 | 0.00 | 0.00 | 86 | 1015.6 |
| 20260905190954 | 90 | 114 | 2.0 | 4.0 | 0.00 | 0.00 | 0.00 | 88 | 1015.7 |
| 20260905190453 | 88 | 183 | 2.0 | 3.0 | 0.00 | 0.00 | 0.00 | 88 | 1015.9 |
| 20260905185951 | 88 | 174 | 3.0 | 6.0 | 0.00 | 0.00 | 0.00 | 88 | 1015.8 |
| 20260905185447 | 89 | 124 | 3.0 | 4.0 | 0.00 | 0.00 | 0.00 | 88 | 1015.8 |
| 20260905184945 | 89 | 149 | 4.0 | 4.0 | 0.00 | 0.00 | 0.00 | 88 | 1015.9 |
| 20260905184440 | 88 | 14 | 3.0 | 5.0 | 0.00 | 0.00 | 0.00 | 89 | 1015.8 |
| 20260905183939 | 88 | 78 | 3.0 | 5.0 | 0.00 | 0.00 | 0.00 | 88 | 1016.0 |
| 20260905183433 | 88 | 85 | 4.0 | 9.0 | 0.00 | 0.00 | 0.00 | 89 | 1016.0 |
| 20260905182929 | 88 | 61 | 4.0 | 7.0 | 0.00 | 0.00 | 0.00 | 89 | 1015.8 |
| 20260905182427 | 87 | 28 | 5.0 | 5.0 | 0.00 | 0.00 | 0.00 | 90 | 1016.1 |
| 20260905181924 | 89 | 103 | 0.0 | 4.0 | 0.00 | 0.00 | 0.00 | 88 | 1016.1 |
| 20260905181418 | 89 | 35 | 5.0 | 7.0 | 0.00 | 0.00 | 0.00 | 87 | 1016.2 |
| 20260905180917 | 89 | 31 | 4.0 | 4.0 | 0.00 | 0.00 | 0.00 | 86 | 1016.1 |
| 20260905180412 | 90 | 264 | 2.0 | 2.0 | 0.00 | 0.00 | 0.00 | 83 | 1016.4 |
| 20260905175907 | 91 | 180 | 1.0 | 6.0 | 0.00 | 0.00 | 0.00 | 82 | 1016.4 |
| 20260905175406 | 90 | 127 | 2.0 | 2.0 | 0.00 | 0.00 | 0.00 | 84 | 1016.5 |
| 20260905174901 | 88 | 243 | 3.0 | 4.0 | 0.00 | 0.00 | 0.00 | 84 | 1016.6 |
| 20260905174357 | 88 | 257 | 2.0 | 7.0 | 0.00 | 0.00 | 0.00 | 87 | 1016.5 |
| 20260905173853 | 90 | 320 | 2.0 | 4.0 | 0.00 | 0.00 | 0.00 | 85 | 1016.5 |
| 20260905173349 | 91 | 9 | 4.0 | 4.0 | 0.00 | 0.00 | 0.00 | 84 | 1016.7 |
| 20260905172843 | 92 | 172 | 4.0 | 4.0 | 0.00 | 0.00 | 0.00 | 84 | 1016.7 |
| 20260905172341 | 90 | 161 | 0.0 | 5.0 | 0.00 | 0.00 | 0.00 | 87 | 1016.8 |
| 20260905171838 | 89 | 228 | 2.0 | 3.0 | 0.00 | 0.00 | 0.00 | 88 | 1016.8 |
| 20260905171334 | 88 | 325 | 1.0 | 4.0 | 0.00 | 0.00 | 0.00 | 87 | 1016.9 |
| 20260905170830 | 87 | 212 | 0.0 | 4.0 | 0.00 | 0.00 | 0.00 | 91 | 1017.0 |
| 20260905170326 | 85 | 328 | 2.0 | 2.0 | 0.00 | 0.00 | 0.00 | 94 | 1017.2 |
| 20260905165825 | 85 | 342 | 0.0 | 4.0 | 0.00 | 0.00 | 0.00 | 94 | 1017.4 |